WE3C Weather Reports


Display with metric or nautical units.
time (UTC)temp
F
wind
direction
speed
MPH
gust
MPH
rain 1hr
in
rain 24hr
in
rain mn
in
humidity
%
barometer
mb
20260509141536 56 176 0.0 0.0 0.00 0.00 0.00 79 1016.6
20260509140034 55 178 0.0 0.0 0.00 0.00 0.00 79 1016.6
20260509134532 55 173 0.0 0.0 0.00 0.00 0.00 79 1016.6
20260509133032 54 172 0.0 0.0 0.00 0.00 0.00 79 1016.6
20260509131529 54 167 0.0 0.0 0.00 0.00 0.00 79 1016.5
20260509130036 53 360 0.0 0.0 0.00 0.00 0.00 79 1016.6
20260509124530 53 136 0.0 0.0 0.00 0.00 0.00 79 1016.5
20260509123025 52 360 0.0 0.0 0.00 0.00 0.00 79 1016.5
20260509121634 52 360 0.0 0.0 0.00 0.00 0.00 79 1016.7
20260509120024 52 149 0.0 0.0 0.00 0.00 0.00 79 1016.7
20260509114523 52 148 0.0 0.0 0.00 0.00 0.00 78 1016.8
20260509113025 52 360 0.0 0.0 0.00 0.00 0.00 78 1016.8
20260509111520 52 360 0.0 0.0 0.00 0.00 0.00 78 1016.6
20260509110020 51 147 0.0 0.0 0.00 0.00 0.00 78 1016.4
20260509104520 51 144 0.0 0.0 0.00 0.00 0.00 78 1016.1
20260509103021 51 145 0.0 0.0 0.00 0.00 0.00 77 1016.2
20260509101524 51 147 0.0 0.0 0.00 0.00 0.00 77 1016.2
20260509100022 51 147 0.0 0.0 0.00 0.00 0.00 77 1016.1
20260509094516 51 153 0.0 0.0 0.00 0.00 0.00 77 1016.1
20260509093017 51 152 0.0 0.0 0.00 0.00 0.00 77 1016.3
20260509091513 51 155 0.0 0.0 0.00 0.00 0.00 77 1016.5
20260509090020 51 153 0.0 0.0 0.00 0.00 0.00 77 1016.4
20260509084515 51 153 0.0 0.0 0.00 0.00 0.00 76 1016.5
20260509083028 51 150 0.0 0.0 0.00 0.00 0.00 76 1016.8
20260509081511 51 150 0.0 0.0 0.00 0.00 0.00 75 1016.9
20260509080008 51 360 0.0 0.0 0.00 0.00 0.00 74 1017.0
20260509074506 51 148 0.0 0.0 0.00 0.00 0.00 74 1017.0
20260509073005 52 150 0.0 0.0 0.00 0.00 0.00 72 1017.0
20260509071503 52 138 0.0 0.0 0.00 0.00 0.00 73 1016.9
20260509070004 52 132 0.0 0.0 0.00 0.00 0.00 71 1016.8
20260509064503 53 126 0.0 0.0 0.00 0.00 0.00 69 1016.7
20260509063003 53 130 0.0 0.0 0.00 0.00 0.00 68 1016.9
20260509061604 53 126 0.0 0.0 0.00 0.00 0.00 67 1017.0
20260509060108 53 133 0.0 0.0 0.00 0.00 0.00 68 1017.6
20260509054601 52 123 0.0 0.0 0.00 0.00 0.00 69 1017.7
20260509053123 52 166 0.0 0.0 0.00 0.00 0.00 71 1017.8
20260509051555 52 165 0.0 0.0 0.00 0.00 0.00 71 1017.8
20260509050054 52 166 0.0 0.0 0.00 0.00 0.00 70 1017.8
20260509044631 52 166 0.0 0.0 0.00 0.00 0.00 70 1017.7
20260509043127 53 167 0.0 0.0 0.00 0.00 0.00 73 1017.6
20260509041549 53 164 0.0 0.0 0.00 0.00 0.00 73 1017.9
20260509040044 53 164 0.0 0.0 0.00 0.00 0.00 69 1018.5
20260509033018 54 165 0.0 0.0 0.00 0.00 0.00 66 1018.5
20260509031517 54 360 0.0 0.0 0.00 0.00 0.00 68 1018.1
20260509030031 54 360 0.0 0.0 0.00 0.00 0.00 67 1018.1
20260509024517 54 360 0.0 0.0 0.00 0.00 0.00 68 1017.9
20260509023018 54 360 0.0 0.0 0.00 0.00 0.00 66 1018.1
20260509021518 54 360 0.0 0.0 0.00 0.00 0.00 66 1018.2
20260509020015 54 360 0.0 0.0 0.00 0.00 0.00 66 1018.2
20260509014515 54 360 0.0 0.0 0.00 0.00 0.00 66 1017.8
20260509013014 54 360 0.0 0.0 0.00 0.00 0.00 65 1017.7
20260509011514 55 360 0.0 0.0 0.00 0.00 0.00 63 1017.5
20260509010014 56 298 0.0 0.0 0.00 0.00 0.00 62 1017.4
20260509004522 57 300 0.0 0.0 0.00 0.00 0.00 61 1017.2
20260509003013 57 305 0.0 0.0 0.00 0.00 0.00 61 1017.0
20260509001513 57 310 0.0 0.0 0.00 0.00 0.00 60 1016.8
20260509000011 58 263 0.0 0.0 0.00 0.00 0.00 59 1016.6
20260508234514 58 296 0.0 0.0 0.00 0.00 0.00 60 1016.6
20260508233011 59 247 0.0 0.0 0.00 0.00 0.00 59 1016.7
20260508231510 59 251 0.0 0.0 0.00 0.00 0.00 57 1016.6
20260508230009 60 248 0.0 0.0 0.00 0.00 0.00 52 1016.3
20260508224509 60 250 0.0 0.0 0.00 0.00 0.00 49 1016.3
20260508223018 60 360 0.0 0.0 0.00 0.00 0.00 47 1016.4
20260508221507 61 246 0.0 0.0 0.00 0.00 0.00 47 1016.4
20260508220009 60 231 0.0 0.0 0.00 0.00 0.00 48 1016.4
20260508214507 61 257 0.0 0.0 0.00 0.00 0.00 48 1016.5
20260508213018 61 247 0.0 0.0 0.00 0.00 0.00 45 1016.4
20260508211505 62 221 0.0 0.0 0.00 0.00 0.00 44 1016.4
20260508210008 62 244 0.0 0.0 0.00 0.00 0.00 44 1016.3
20260508204505 62 360 0.0 0.0 0.00 0.00 0.00 44 1016.4
20260508203109 63 360 0.0 0.0 0.00 0.00 0.00 43 1016.5
20260508201503 63 287 0.0 0.0 0.00 0.00 0.00 43 1016.5
20260508200008 63 292 0.0 0.0 0.00 0.00 0.00 44 1016.9
20260508194501 62 251 0.0 0.0 0.00 0.00 0.00 47 1017.0
20260508193105 61 360 0.0 0.0 0.00 0.00 0.00 44 1017.1
20260508191600 63 229 0.0 0.0 0.00 0.00 0.00 42 1017.2
20260508190057 62 360 0.0 0.0 0.00 0.00 0.00 43 1017.4
20260508184557 62 259 0.0 0.0 0.00 0.00 0.00 44 1017.2
20260508183056 60 360 0.0 0.0 0.00 0.00 0.00 44 1017.2
20260508181558 61 246 0.0 0.0 0.00 0.00 0.00 43 1017.1
20260508180054 61 232 0.0 0.0 0.00 0.00 0.00 42 1017.1
20260508174559 61 360 0.0 0.0 0.00 0.00 0.00 44 1017.2
20260508173053 62 248 0.0 0.0 0.00 0.00 0.00 46 1017.4
20260508171550 61 205 0.0 0.0 0.00 0.00 0.00 44 1017.4
20260508170048 59 360 0.0 0.0 0.00 0.00 0.00 45 1017.7
20260508164552 59 257 0.0 0.0 0.00 0.00 0.00 46 1017.8
20260508163044 60 232 0.0 0.0 0.00 0.00 0.00 49 1017.9
20260508161541 59 225 0.0 0.0 0.00 0.00 0.00 47 1018.0
20260508160039 58 360 0.0 0.0 0.00 0.00 0.00 45 1018.1
20260508154537 57 360 0.0 0.0 0.00 0.00 0.00 47 1018.4
20260508153038 56 244 0.0 0.0 0.00 0.00 0.00 48 1018.6
20260508151527 55 211 0.0 0.0 0.00 0.00 0.00 52 1019.0
20260508150045 54 249 0.0 0.0 0.00 0.00 0.00 54 1019.0
20260508144520 53 250 0.0 0.0 0.00 0.00 0.00 57 1019.1
20260508143020 51 240 0.0 0.0 0.00 0.00 0.00 57 1019.2